Regional Weather Roundup
Issued by NWS Charleston, WV

Home | Current Version | Previous Version | Text Only | Print | Product List | Glossary Off
Versions: 1 2 3 4 5 6 7 8 9 10 11 12 13 14 15 16 17 18 19 20 21 22 23 24 25 26 27 28

000
ASUS41 KRLX 182110
RWRRLX
West Virginia Regional Weather Roundup
National Weather Service Charleston WV
400 PM EST SUN FEB 18 2018

Note: "fair" indicates few or no clouds below 12,000 feet with no
significant weather and/or obstructions to visibility.

WVZ003-182200-
Northern Panhandle of West Virginia

CITY           SKY/WX    TMP DP  RH WIND       PRES   REMARKS
WHEELING       CLOUDY    38  27  64 S9        30.36F
$$

WVZ009-182200-
Northwest West Virginia

CITY           SKY/WX    TMP DP  RH WIND       PRES   REMARKS
PARKERSBURG      N/A     43  29  57 VRB7      30.36F
$$

WVZ006-182200-
Western West Virginia

CITY           SKY/WX    TMP DP  RH WIND       PRES   REMARKS
HUNTINGTON       N/A     50  30  46 E8        30.27F
$$

WVZ015-182200-
West Central West Virginia

CITY           SKY/WX    TMP DP  RH WIND       PRES   REMARKS
CHARLESTON       N/A     49  30  48 VRB3      30.29F
$$

WVZ022-031-182200-
North Central West Virginia

CITY           SKY/WX    TMP DP  RH WIND       PRES   REMARKS
CLARKSBURG       N/A     45  29  53 N5        30.34F
MORGANTOWN       N/A     41  27  57 S5        30.36F
$$

WVZ025-035-042-045-182200-
Southern West Virginia

CITY           SKY/WX    TMP DP  RH WIND       PRES   REMARKS
BECKLEY          N/A     47  26  44 S8        30.27S
LOGAN            N/A     52  27  37 VRB5      30.26S
BLUEFIELD        N/A     50  23  34 VRB6      30.26F
LEWISBURG        N/A     49  28  44 CALM      30.30F
$$

WVZ047-182200-
Northern Mountains of West Virginia

CITY           SKY/WX    TMP DP  RH WIND       PRES   REMARKS
ELKINS           N/A     45  27  49 CALM      30.30F
$$

WVZ052-182200-
Eastern Panhandle of West Virginia

CITY           SKY/WX    TMP DP  RH WIND       PRES   REMARKS
MARTINSBURG      N/A     48  27  44 VRB3      30.37R
PETERSBURG       N/A     50  25  38 SE6       30.34S
$$




USA.gov is the U.S. government's official web portal to all federal, state and local government web resources and services.